Location: Unspecified
(44.3683°S, 0.0000°E)
Time: 04:18:15
(UTC+00:00)

Transit 4A - Visible Passes

Search period start: 04 April 2026 00:00
Search period end: 14 April 2026 00:00
Orbit: 863 x 978 km, 66.8° (Epoch: 29 March)

Date Brightness Start Highest point End Pass type
(mag) Time Alt. Az. Time Alt. Az. Time Alt. Az.
4 Apr 10.2 04:00:37 10° NNE 04:05:03 21° ENE 04:09:24 10° ESE visible
4 Apr 7.9 05:44:33 10° NW 05:50:47 73° SW 05:56:51 10° SSE visible
5 Apr 9.6 04:08:15 10° NNE 04:13:33 30° ENE 04:18:45 10° SE visible
6 Apr 8.9 04:16:18 10° N 04:22:07 44° ENE 04:27:50 10° SE visible
7 Apr 8.3 04:25:18 13° NNW 04:30:45 63° ENE 04:36:45 10° SE visible
8 Apr 10.3 02:51:30 12° NE 02:53:58 15° ENE 02:57:17 10° ESE visible
8 Apr 7.9 04:35:03 20° NNW 04:39:27 88° ENE 04:45:33 10° SSE visible
9 Apr 9.8 03:01:05 21° NE 03:02:26 23° ENE 03:07:01 10° ESE visible
9 Apr 7.9 04:44:37 26° NW 04:48:14 67° SW 04:54:16 10° SSE visible
10 Apr 9.2 03:10:28 32° ENE 03:10:57 33° ENE 03:16:17 10° SE visible
10 Apr 8.2 04:54:00 27° WNW 04:57:04 48° SW 05:02:56 10° SSE visible
11 Apr 8.6 03:19:44 47° ENE 03:19:44 47° ENE 03:25:19 10° SE visible
11 Apr 8.5 05:03:16 25° W 05:06:00 36° SW 05:11:30 10° SSE visible
12 Apr 8.2 03:28:53 63° ESE 03:28:53 63° ESE 03:34:12 10° SE visible
12 Apr 8.9 05:12:24 20° W 05:14:59 27° SW 05:20:03 10° SSE visible
13 Apr 10.6 01:54:26 12° ESE 01:54:26 12° ESE 01:55:01 10° ESE visible
13 Apr 8.1 03:37:56 64° SSE 03:37:56 64° SSE 03:42:58 10° SSE visible
13 Apr 9.2 05:21:26 16° WSW 05:24:04 21° SW 05:28:32 10° S visible
